Regional Weather Roundup
Issued by NWS

Home | Current Version | Previous Version | Graphics & Text | Print | Product List | Glossary On
Versions: 1 2 3 4 5 6 7 8 9 10 11 12 13 14 15 16 17 18 19 20 21 22 23 24 25 26 27 28 29 30 31 32 33 34 35 36 37 38 39 40 41 42 43 44 45 46 47 48 49 50
000
ASUS43 KDMX 040404
RWRIA

WEATHER ROUNDUP FOR IOWA
NATIONAL WEATHER SERVICE DES MOINES IA
  ISSUED BY NWS QUAD CITIES IA IL
1000 PM CST TUE MAR 03 2015

NOTE: "FAIR" INDICATES FEW OR NO CLOUDS BELOW 12,000 FEET WITH NO
SIGNIFICANT WEATHER AND/OR OBSTRUCTIONS TO VISIBILITY.

* - THESE STATIONS ARE NOT NWS STATIONS...THUS NOT UNDER NWS
QUALITY CONTROL.  THEY ALSO DO NOT REPORT WEATHER SUCH
AS PRECIPITATION OR FOG.

IAZ001>003-012>014-020>022-031>034-043>046-040500-
   NORTHWEST IOWA

CITY           SKY/WX    TMP DP  RH WIND       PRES   REMARKS
CARROLL *      CLEAR     14   5  67 NW16G22   30.08R WCI  -2
CHEROKEE *     CLEAR     11   4  72 N9G16     30.08S WCI  -2
DENNISON *     CLEAR     12   5  73 N6        30.09R WCI   3
LE MARS *      CLEAR     10   5  79 NW5       30.10S WCI   2
ORANGE CITY *  CLEAR     12   3  67 N9        30.06R WCI   0
SHELDON *      FAIR       9   3  78 NW7       30.06R WCI  -3
SIOUX CITY     PTCLDY    16   4  59 N16       30.11R WCI   1
SPENCER        CLEAR     10   2  69 NW12      30.06R WCI  -5
$$

IAZ055>058-069>071-079>083-090>094-040500-
   SOUTHWEST IOWA

CITY           SKY/WX    TMP DP  RH WIND       PRES   REMARKS
ATLANTIC *     CLEAR     16   7  67 N14       30.09R WCI   1
AUDUBON *      CLEAR     16   7  67 NW13G20   30.08R WCI   2
CLARINDA *     PTCLDY    21  10  63 N21G28    30.10R WCI   6
COUNCIL BLFS * CLEAR     18   7  62 N12G21    30.08R WCI   5
CRESTON *      MOCLDY    18  10  73 N20G25    30.04R WCI   1
HARLAN *       CLEAR     16   9  73 N14       30.13R WCI   1
LAMONI         CLOUDY    25  16  68 N16       30.01R WCI  12
RED OAK *      PTCLDY    18   7  62 N17G28    30.10R WCI   2
SHENANDOAH *   PTCLDY    21  10  63 N12       30.11R WCI   9
$$

IAZ047>049-059>061-072>074-084-040500-
   CENTRAL IOWA

CITY           SKY/WX    TMP DP  RH WIND       PRES   REMARKS
AMES           PTCLDY    17   8  67 NW16      30.06R WCI   2
ANKENY *       CLOUDY    19  12  73 NW15      30.06R WCI   5
BOONE *        CLOUDY    16   9  73 NW15G22   30.04R WCI   1
CHARITON *     CLOUDY    25  18  74 NW18      30.01S WCI  11
DES MOINES     MOCLDY    20  10  65 N15       30.05R WCI   6
GRINNELL *     MOCLDY    17  12  79 NW21G26   30.03R WCI   1
KNOXVILLE *    MOCLDY    23  12  63 NW14G23   30.01R WCI  11
MARSHALLTOWN   PTCLDY    14   8  77 NW17      30.02R WCI  -3
NEWTON *       MOCLDY    18  10  73 N21       30.03R WCI   1
PELLA *        CLOUDY    22  17  79 N16G25    30.04R WCI   8
PERRY *          N/A     17  10  75 NW16      30.08R WCI   1
$$

IAZ004>006-015-016-023>025-035-036-040500-
   NORTH CENTRAL IOWA

CITY           SKY/WX    TMP DP  RH WIND       PRES   REMARKS
ALGONA *       CLEAR     12 N/A N/A NW16G25   30.05R WCI  -4
CLARION *      PTCLDY    12   5  73 NW20G28   30.04R WCI  -6
ESTHERVILLE    PTCLDY     9   2  73 NW17      30.04R WCI  -9
FORT DODGE *   FAIR      12   3  67 NW8       30.07R WCI   1
MASON CITY     PTCLDY    10   3  73 NW18      30.02R WCI  -8
FOREST CITY *  FAIR      12   1  62 NW20      30.01R WCI  -6
WEBSTER CITY * MOCLDY    14  14 100 NW20      30.04R WCI  -3
IOWA FALLS *   FAIR      13   7  77 NW17      30.02R WCI  -4
$$

IAZ007>011-017>019-026>030-037>042-050>054-066-040500-
   NORTHEAST IOWA

CITY           SKY/WX    TMP DP  RH WIND       PRES   REMARKS
CEDAR RAPIDS   MOCLDY    18  12  77 NW20G32   29.97R WCI   2
CHARLES CITY * FAIR      12   5  73 NW18      29.99R WCI  -5
CLINTON *      CLOUDY    27  19  74 NW21      29.95R WCI  13
DECORAH *      CLOUDY    12   5  73 NW13      29.93R WCI  -3
DUBUQUE          N/A    N/A N/A N/A MISG      29.90R
MONTICELLO *   MOCLDY    18  10  73 NW21G28   29.95R WCI   1
OELWEIN *      PTCLDY    12   7  79 NW10      29.98R WCI  -1
WATERLOO       PTCLDY    13   6  74 NW12      30.01R WCI  -1
$$

IAZ064-065-067-068-078-040500-
   EAST CENTRAL IOWA

CITY           SKY/WX    TMP DP  RH WIND       PRES   REMARKS
DAVENPORT      CLOUDY    26  19  74 NW16      29.93R WCI  14
IOWA CITY      MOCLDY    22  14  71 NW13      30.00R WCI  10
MT. PLEASANT * MOCLDY    26  19  73 NW14G23   29.98R WCI  15
MUSCATINE *    CLOUDY    27  18  69 NW21      29.99R WCI  13
QUAD CITIES    CLOUDY    28  20  71 NW17G28   29.93R WCI  16
$$

IAZ062-063-075>077-085>089-095>099-040500-
   SOUTHEAST IOWA

CITY           SKY/WX    TMP DP  RH WIND       PRES   REMARKS
BURLINGTON     CLOUDY    29  23  78 NW15G24   29.95R WCI  18
FAIRFIELD *    CLOUDY    25  18  74 NW20      29.99R WCI  11
FORT MADISON * CLOUDY    28  25  86 NW16G22   29.96S WCI  17
KEOKUK *       CLOUDY    30  23  74 NW21      29.96R WCI  17
OSKALOOSA *    FAIR      22  15  75 N17G25    30.02R WCI   8
CENTERVILLE *  FAIR      27  19  74 N16G22    30.00R WCI  14
OTTUMWA        CLOUDY    24  15  68 N21       30.01R WCI   9
WASHINGTON *   MOCLDY    25  21  86 NW16G22   30.00R WCI  12
$$

ABBREVIATIONS USED IN REMARKS
   TC - TEMPERATURES IN CELSIUS
  WCI - WIND CHILL INDEX
   HX - HEAT INDEX
  VSB - VISIBILITY
$$



USA.gov is the U.S. government's official web portal to all federal, state and local government web resources and services.